When you browse on this site, cookies collect data to enhance your experience and personalize the content and advertising you see.
Visit our Privacy Policy to learn more. By continuing to use the site, you agree to this use of cookies and data.
  • Em Portugal
  • Lista de países
  • Para 7 dias
  • Temperatura da água
  • Mapas de satélite
  • Mapa do tempo
  • Widgets de tempo
  • user-avatar
    Iniciar Sessão

    Previsão horária em Slomiana

    Hoje, 16 Fevereiro, Sábado

    Tempo Temperatura Precipitação Vento Pressão Humidade
    00:00 +2°C° 0 mm 2 m/s 756 mmHg 94%
    01:00 +3°C° 0 mm 1 m/s 756 mmHg 95%
    02:00 +2°C° 0 mm 1 m/s 756 mmHg 95%
    03:00 +2°C° 0 mm 1 m/s 756 mmHg 96%
    04:00 +2°C° 0 mm 1 m/s 756 mmHg 96%
    05:00 +2°C° 0 mm 1 m/s 756 mmHg 96%
    06:00 +2°C° 0 mm 1 m/s 756 mmHg 96%
    07:00 +1°C° 0 mm 1 m/s 756 mmHg 96%
    08:00 +2°C° 0 mm 2 m/s 756 mmHg 92%
    09:00 +3°C° 0 mm 2 m/s 756 mmHg 87%
    10:00 +4°C° 0 mm 2 m/s 756 mmHg 83%
    11:00 +5°C° 0 mm 2 m/s 755 mmHg 78%
    12:00 +7°C° 0 mm 2 m/s 755 mmHg 74%
    13:00 +8°C° 0 mm 2 m/s 755 mmHg 70%
    14:00 +8°C° 0 mm 2 m/s 755 mmHg 71%
    15:00 +7°C° 0 mm 2 m/s 754 mmHg 72%
    16:00 +7°C° 0 mm 2 m/s 754 mmHg 73%
    17:00 +6°C° 0 mm 2 m/s 754 mmHg 76%
    18:00 +5°C° 0 mm 2 m/s 754 mmHg 78%
    19:00 +5°C° 0 mm 2 m/s 754 mmHg 81%
    20:00 +4°C° 0 mm 2 m/s 754 mmHg 82%
    21:00 +3°C° 0 mm 3 m/s 753 mmHg 83%
    22:00 +2°C° 0 mm 3 m/s 753 mmHg 84%
    23:00 +2°C° 0 mm 3 m/s 753 mmHg 85%

    Amanhã, 17 Fevereiro, Domingo

    Tempo Temperatura Precipitação Vento Pressão Humidade
    00:00 +2°C° 0 mm 3 m/s 753 mmHg 85%
    01:00 +2°C° 0 mm 3 m/s 753 mmHg 86%
    02:00 +2°C° 0 mm 3 m/s 753 mmHg 85%
    03:00 +1°C° 0 mm 3 m/s 752 mmHg 85%
    04:00 +1°C° 0 mm 3 m/s 752 mmHg 84%
    05:00 +1°C° 0 mm 3 m/s 752 mmHg 83%
    06:00 +1°C° 0 mm 3 m/s 752 mmHg 81%
    07:00 0°C° 0 mm 3 m/s 752 mmHg 80%
    08:00 +2°C° 0 mm 3 m/s 752 mmHg 73%
    09:00 +4°C° 0 mm 4 m/s 752 mmHg 66%
    10:00 +5°C° 0 mm 4 m/s 752 mmHg 58%
    11:00 +6°C° 0 mm 4 m/s 752 mmHg 56%
    12:00 +7°C° 0 mm 4 m/s 752 mmHg 53%
    13:00 +10°C° 0 mm 4 m/s 752 mmHg 50%
    14:00 +8°C° 0 mm 4 m/s 752 mmHg 53%
    15:00 +9°C° 0 mm 3 m/s 752 mmHg 55%
    16:00 +9°C° 0 mm 2 m/s 751 mmHg 58%
    17:00 +8°C° 0 mm 2 m/s 752 mmHg 62%
    18:00 +6°C° 0 mm 2 m/s 752 mmHg 66%
    19:00 +5°C° 0 mm 2 m/s 752 mmHg 70%
    20:00 +5°C° 0 mm 2 m/s 752 mmHg 73%
    21:00 +5°C° 0 mm 1 m/s 752 mmHg 76%
    22:00 +5°C° 0 mm 1 m/s 752 mmHg 78%
    23:00 +4°C° 0 mm 1 m/s 752 mmHg 80%

    Depois de amanhã, 18 Fevereiro, Segunda-feira

    Tempo Temperatura Precipitação Vento Pressão Humidade
    00:00 +4°C° 0 mm 1 m/s 752 mmHg 82%
    01:00 +3°C° 0 mm 1 m/s 752 mmHg 83%
    02:00 +3°C° 0 mm 1 m/s 752 mmHg 84%
    03:00 +3°C° 0 mm 1 m/s 752 mmHg 85%
    04:00 +2°C° 0 mm 0 m/s 752 mmHg 86%
    05:00 +1°C° 0 mm 0 m/s 752 mmHg 87%
    06:00 +1°C° 0 mm 0 m/s 752 mmHg 88%
    07:00 +1°C° 0 mm 0 m/s 752 mmHg 89%
    08:00 +3°C° 0 mm 0 m/s 752 mmHg 84%
    09:00 +5°C° 0 mm 1 m/s 752 mmHg 78%
    10:00 +7°C° 0 mm 1 m/s 752 mmHg 73%
    11:00 +8°C° 0 mm 1 m/s 752 mmHg 70%
    12:00 +8°C° 0 mm 1 m/s 752 mmHg 66%
    13:00 +9°C° 0 mm 1 m/s 752 mmHg 63%
    14:00 +9°C° 0 mm 1 m/s 752 mmHg 64%
    15:00 +9°C° 0 mm 1 m/s 751 mmHg 66%
    16:00 +9°C° 0 mm 1 m/s 751 mmHg 68%
    17:00 +7°C° 0 mm 2 m/s 751 mmHg 73%
    18:00 +5°C° 0 mm 2 m/s 751 mmHg 78%
    19:00 +4°C° 0 mm 2 m/s 751 mmHg 83%
    20:00 +4°C° 0 mm 2 m/s 751 mmHg 85%
    21:00 +3°C° 0 mm 3 m/s 751 mmHg 87%
    22:00 +2°C° 0 mm 3 m/s 751 mmHg 89%
    23:00 +2°C° 0 mm 3 m/s 751 mmHg 90%

    19 Fevereiro, Terça-feira

    Tempo Temperatura Precipitação Vento Pressão Humidade
    00:00 +1°C° 0 mm 3 m/s 751 mmHg 90%
    01:00 +1°C° 0 mm 3 m/s 751 mmHg 91%
    02:00 +1°C° 0 mm 3 m/s 751 mmHg 91%
    03:00 0°C° 0 mm 3 m/s 750 mmHg 90%
    04:00 +1°C° 0 mm 2 m/s 750 mmHg 90%
    05:00 +1°C° 0 mm 2 m/s 750 mmHg 90%
    06:00 +1°C° 0 mm 2 m/s 750 mmHg 90%
    07:00 +1°C° 0 mm 2 m/s 750 mmHg 90%
    08:00 +2°C° 0 mm 2 m/s 749 mmHg 84%
    09:00 +4°C° 0 mm 2 m/s 749 mmHg 77%
    10:00 +4°C° 0 mm 3 m/s 749 mmHg 71%
    11:00 +7°C° 0 mm 3 m/s 749 mmHg 66%
    12:00 +8°C° 0 mm 3 m/s 748 mmHg 62%
    13:00 +9°C° 0 mm 3 m/s 748 mmHg 57%
    14:00 +9°C° 0 mm 3 m/s 748 mmHg 59%
    15:00 +9°C° 0 mm 3 m/s 747 mmHg 62%
    16:00 +9°C° 0 mm 2 m/s 747 mmHg 64%
    17:00 +7°C° 0 mm 3 m/s 747 mmHg 69%
    18:00 +5°C° 0 mm 3 m/s 747 mmHg 75%
    19:00 +4°C° 0 mm 3 m/s 747 mmHg 80%
    20:00 +4°C° 0 mm 3 m/s 747 mmHg 81%
    21:00 +4°C° 0 mm 3 m/s 747 mmHg 82%
    22:00 +3°C° 0 mm 3 m/s 748 mmHg 83%
    23:00 +3°C° 0 mm 3 m/s 748 mmHg 85%

    20 Fevereiro, Quarta-feira

    Tempo Temperatura Precipitação Vento Pressão Humidade
    00:00 +3°C° 0 mm 3 m/s 748 mmHg 86%
    01:00 +2°C° 0 mm 3 m/s 748 mmHg 87%
    02:00 +2°C° 0 mm 3 m/s 748 mmHg 87%
    03:00 +2°C° 0 mm 3 m/s 748 mmHg 86%
    04:00 +2°C° 0 mm 3 m/s 748 mmHg 85%
    05:00 +2°C° 0.2 mm 3 m/s 748 mmHg 87%
    06:00 +2°C° 0.2 mm 3 m/s 748 mmHg 88%
    07:00 +2°C° 0.2 mm 3 m/s 749 mmHg 90%
    08:00 +3°C° 0.1 mm 3 m/s 749 mmHg 87%
    09:00 +4°C° 0.1 mm 4 m/s 750 mmHg 84%
    10:00 +5°C° 0.1 mm 4 m/s 750 mmHg 82%
    11:00 +5°C° 0 mm 4 m/s 750 mmHg 80%
    12:00 +5°C° 0 mm 4 m/s 750 mmHg 79%
    13:00 +5°C° 0 mm 4 m/s 750 mmHg 77%
    14:00 +5°C° 0 mm 4 m/s 750 mmHg 74%
    15:00 +6°C° 0 mm 4 m/s 750 mmHg 70%
    16:00 +7°C° 0 mm 3 m/s 750 mmHg 67%
    17:00 +5°C° 0 mm 3 m/s 750 mmHg 72%
    18:00 +4°C° 0 mm 3 m/s 750 mmHg 76%
    19:00 +4°C° 0 mm 2 m/s 751 mmHg 81%
    20:00 +4°C° 0 mm 2 m/s 751 mmHg 82%
    21:00 +2°C° 0 mm 3 m/s 751 mmHg 83%
    22:00 +2°C° 0 mm 3 m/s 751 mmHg 84%
    23:00 +2°C° 0 mm 3 m/s 751 mmHg 85%

    21 Fevereiro, Quinta-feira

    Tempo Temperatura Precipitação Vento Pressão Humidade
    00:00 +2°C° 0 mm 3 m/s 751 mmHg 86%
    01:00 +1°C° 0 mm 3 m/s 751 mmHg 87%
    02:00 +1°C° 0 mm 3 m/s 751 mmHg 88%
    03:00 +1°C° 0 mm 3 m/s 751 mmHg 89%
    04:00 +1°C° 0 mm 3 m/s 751 mmHg 90%
    05:00 +1°C° 0 mm 3 m/s 751 mmHg 90%
    06:00 +1°C° 0 mm 3 m/s 751 mmHg 90%
    07:00 +1°C° 0 mm 3 m/s 751 mmHg 90%
    08:00 +2°C° 0 mm 3 m/s 751 mmHg 87%
    09:00 +3°C° 0 mm 4 m/s 751 mmHg 83%
    10:00 +4°C° 0 mm 4 m/s 751 mmHg 79%
    11:00 +5°C° 0.1 mm 4 m/s 751 mmHg 79%
    12:00 +5°C° 0.1 mm 4 m/s 751 mmHg 79%
    13:00 +5°C° 0.1 mm 4 m/s 750 mmHg 79%
    14:00 +5°C° 0.1 mm 4 m/s 750 mmHg 80%
    15:00 +5°C° 0.1 mm 4 m/s 750 mmHg 82%
    16:00 +5°C° 0.1 mm 3 m/s 750 mmHg 84%
    17:00 +5°C° 0.2 mm 3 m/s 750 mmHg 85%
    18:00 +5°C° 0.2 mm 3 m/s 750 mmHg 87%
    19:00 +5°C° 0.2 mm 3 m/s 750 mmHg 89%
    20:00 +4°C° 0.3 mm 3 m/s 750 mmHg 90%
    21:00 +4°C° 0.3 mm 3 m/s 750 mmHg 91%
    22:00 +4°C° 0.3 mm 3 m/s 750 mmHg 92%
    23:00 +4°C° 0.3 mm 3 m/s 750 mmHg 93%
    Mostrar mais